Tracking 19176 objects as of 27-May-2018
HD Live streaming from Space Station
objects crossing your sky now

LEASAT 4

Track LEASAT 4 now!
LEASAT 4 is classified as:


NORAD ID: 15995
Int'l Code: 1985-076D
Perigee: 36,461.4 km
Apogee: 36,540.7 km
Inclination: 13.6 °
Period: 1,472.4 minutes
Semi major axis: 42872 km
RCS: 16.7803 m2 (large)
Launch date: August 27, 1985
Source: United States (US)
Launch site: AIR FORCE EASTERN TEST RANGE (AFETR)
aabbcc
Your satellite tracking list
Your tracking list is empty




NASA's NSSDC Master Catalog

Two Line Element Set (TLE):
1 15995U 85076D   18146.36542953 -.00000206 +00000-0 +00000-0 0  9991
2 15995 013.5831 349.8873 0009253 300.3973 257.8244 00.97800646089344
Source of the keplerian elements: AFSPC